RYR981Y EGBB-LROP

Flight info

Callsign RYR981Y
Flight time 2h 57m
Altitude 37000
Route UNGAP P155 SIVDA P137 REDFA DCT TACHA DCT NIGUG DCT HMM DCT EXOBA DCT NOMKA L620 SULED DCT EKPEK L620 OMELO DCT OMIFU DCT MAKAL DCT PITOK DCT PERIT DCT BADOR DCT DENAK
Aircraft B38M/M-SDE1FGHILORVWXY/HB1

Departure

Time 2026-05-05 21:03
Airport Birmingham Airport (EGBB)

Arrival

Time 2026-05-06 00:01
Airport Bucharest Henri Coandă International Airport (LROP)
Time Latitude Longitude Altitude Speed Heading
2026-05-05 20:24 52.45436 -1.73484 326 ft 0 kts 146°
2026-05-05 20:56 52.45438 -1.73487 325 ft 3 kts 144°
2026-05-05 20:56 52.45456 -1.73506 325 ft 4 kts 143°
2026-05-05 20:56 52.45474 -1.73538 322 ft 4 kts 114°
2026-05-05 20:57 52.45473 -1.73590 325 ft 4 kts 58°
2026-05-05 20:57 52.45475 -1.73587 325 ft 4 kts 56°
2026-05-05 20:57 52.45480 -1.73575 322 ft 0 kts 56°
2026-05-05 20:59 52.45480 -1.73574 322 ft 0 kts 56°
2026-05-05 20:59 52.45496 -1.73536 324 ft 10 kts 53°
2026-05-05 21:00 52.45597 -1.73541 323 ft 22 kts 322°
2026-05-05 21:00 52.45682 -1.73759 323 ft 26 kts 239°
2026-05-05 21:00 52.45570 -1.74025 324 ft 32 kts 237°
2026-05-05 21:00 52.45429 -1.74294 326 ft 27 kts 188°
2026-05-05 21:01 52.45275 -1.74151 326 ft 28 kts 145°
2026-05-05 21:01 52.45097 -1.73957 326 ft 34 kts 145°
2026-05-05 21:01 52.44899 -1.73727 325 ft 28 kts 145°
2026-05-05 21:01 52.44698 -1.73703 325 ft 31 kts 153°
2026-05-05 21:02 52.44497 -1.73486 326 ft 39 kts 146°
2026-05-05 21:02 52.44325 -1.73541 326 ft 26 kts 249°
2026-05-05 21:02 52.44397 -1.73704 325 ft 19 kts 327°
2026-05-05 21:02 52.44411 -1.73719 325 ft 1 kts 326°
2026-05-05 21:03 52.44497 -1.73816 329 ft 49 kts 325°
2026-05-05 21:03 52.45009 -1.74385 331 ft 126 kts 325°
2026-05-05 21:03 52.45906 -1.75408 379 ft 182 kts 328°
2026-05-05 21:03 52.46992 -1.76650 1096 ft 192 kts 330°
2026-05-05 21:04 52.48051 -1.77818 2349 ft 182 kts 332°
2026-05-05 21:04 52.49151 -1.79006 2868 ft 202 kts 336°
2026-05-05 21:04 52.50577 -1.79504 3267 ft 222 kts
2026-05-05 21:04 52.52017 -1.78732 4177 ft 219 kts 35°
2026-05-05 21:05 52.53069 -1.76922 5053 ft 225 kts 59°
2026-05-05 21:05 52.53599 -1.74473 5445 ft 232 kts 83°
2026-05-05 21:05 52.53455 -1.71832 5597 ft 235 kts 99°
2026-05-05 21:05 52.53143 -1.69185 5781 ft 239 kts 102°
2026-05-05 21:06 52.52429 -1.66629 5797 ft 256 kts 129°
2026-05-05 21:06 52.51165 -1.64445 6044 ft 273 kts 134°
2026-05-05 21:06 52.49846 -1.62244 7061 ft 270 kts 134°
2026-05-05 21:06 52.48492 -1.60012 7811 ft 282 kts 135°
2026-05-05 21:07 52.47079 -1.57701 8590 ft 290 kts 135°
2026-05-05 21:07 52.45640 -1.55353 9480 ft 295 kts 135°
2026-05-05 21:07 52.44176 -1.52967 10284 ft 301 kts 135°
2026-05-05 21:07 52.42651 -1.50487 10735 ft 319 kts 135°
2026-05-05 21:08 52.41018 -1.47835 11079 ft 340 kts 135°
2026-05-05 21:08 52.39313 -1.45071 11431 ft 358 kts 135°
2026-05-05 21:08 52.37552 -1.42090 11887 ft 371 kts 128°
2026-05-05 21:08 52.36341 -1.38361 12593 ft 375 kts 107°
2026-05-05 21:09 52.35933 -1.34140 13288 ft 379 kts 90°
2026-05-05 21:09 52.35907 -1.29801 13975 ft 383 kts 90°
2026-05-05 21:09 52.35895 -1.25429 14665 ft 386 kts 90°
2026-05-05 21:09 52.35895 -1.21000 15268 ft 392 kts 90°
2026-05-05 21:10 52.35902 -1.16524 15985 ft 394 kts 90°
2026-05-05 21:10 52.35910 -1.12018 16663 ft 398 kts 90°
2026-05-05 21:10 52.35919 -1.07461 17251 ft 403 kts 90°
2026-05-05 21:10 52.35926 -1.02861 17975 ft 405 kts 90°
2026-05-05 21:11 52.35932 -0.98231 18532 ft 410 kts 91°
2026-05-05 21:11 52.35936 -0.93558 19088 ft 412 kts 91°
2026-05-05 21:11 52.35938 -0.88851 19673 ft 415 kts 91°
2026-05-05 21:11 52.35938 -0.84108 20175 ft 419 kts 91°
2026-05-05 21:12 52.35936 -0.79316 20712 ft 422 kts 91°
2026-05-05 21:12 52.35932 -0.74497 21243 ft 425 kts 91°
2026-05-05 21:12 52.35926 -0.69632 21747 ft 429 kts 91°
2026-05-05 21:12 52.35918 -0.64802 22256 ft 432 kts 91°
2026-05-05 21:13 52.35908 -0.59865 22748 ft 436 kts 91°
2026-05-05 21:13 52.35895 -0.54884 23231 ft 439 kts 91°
2026-05-05 21:13 52.35881 -0.49866 23692 ft 443 kts 91°
2026-05-05 21:13 52.35863 -0.44812 24098 ft 446 kts 91°
2026-05-05 21:14 52.35844 -0.39728 24524 ft 448 kts 91°
2026-05-05 21:14 52.35823 -0.34617 24938 ft 451 kts 91°
2026-05-05 21:14 52.35799 -0.29479 25343 ft 453 kts 92°
2026-05-05 21:14 52.35774 -0.24311 25739 ft 456 kts 92°
2026-05-05 21:15 52.35745 -0.19115 26128 ft 458 kts 92°
2026-05-05 21:15 52.35714 -0.13889 26503 ft 461 kts 92°
2026-05-05 21:15 52.35680 -0.08640 26886 ft 463 kts 92°
2026-05-05 21:15 52.35644 -0.03357 27255 ft 466 kts 92°
2026-05-05 21:16 52.35595 0.01951 27621 ft 467 kts 95°
2026-05-05 21:16 52.35215 0.07213 28007 ft 466 kts 101°
2026-05-05 21:16 52.34761 0.12489 28336 ft 469 kts 101°
2026-05-05 21:16 52.34295 0.17783 28698 ft 471 kts 101°
2026-05-05 21:17 52.33824 0.23092 29050 ft 473 kts 101°
2026-05-05 21:17 52.33348 0.28426 29399 ft 475 kts 101°
2026-05-05 21:17 52.32865 0.33801 29749 ft 477 kts 101°
2026-05-05 21:17 52.32387 0.39094 30178 ft 476 kts 102°
2026-05-05 21:18 52.31904 0.44437 30588 ft 475 kts 102°
2026-05-05 21:18 52.31417 0.49780 30963 ft 474 kts 101°
2026-05-05 21:18 52.30929 0.55102 31389 ft 472 kts 101°
2026-05-05 21:18 52.30442 0.60389 31828 ft 470 kts 101°
2026-05-05 21:19 52.29954 0.65658 32251 ft 468 kts 102°
2026-05-05 21:19 52.29466 0.70906 32681 ft 467 kts 102°
2026-05-05 21:19 52.28976 0.76143 33086 ft 465 kts 102°
2026-05-05 21:19 52.28487 0.81348 33496 ft 463 kts 102°
2026-05-05 21:20 52.27996 0.86542 33890 ft 462 kts 101°
2026-05-05 21:20 52.27506 0.91707 34271 ft 459 kts 101°
2026-05-05 21:20 52.27014 0.96868 34542 ft 459 kts 101°
2026-05-05 21:20 52.26520 1.02021 34779 ft 460 kts 101°
2026-05-05 21:21 52.26025 1.07168 35069 ft 459 kts 101°
2026-05-05 21:21 52.25527 1.12320 35303 ft 460 kts 101°
2026-05-05 21:21 52.25025 1.17487 35543 ft 461 kts 101°
2026-05-05 21:21 52.24527 1.22581 35771 ft 461 kts 101°
2026-05-05 21:22 52.24013 1.27821 35999 ft 462 kts 101°
2026-05-05 21:22 52.23510 1.32934 36225 ft 463 kts 101°
2026-05-05 21:22 52.22996 1.38121 36440 ft 463 kts 101°
2026-05-05 21:22 52.22473 1.43379 36656 ft 464 kts 101°
2026-05-05 21:23 52.21954 1.48577 36855 ft 465 kts 101°
2026-05-05 21:23 52.21439 1.53706 37001 ft 465 kts 101°
2026-05-05 21:23 52.20391 1.64069 36969 ft 461 kts 102°
2026-05-05 21:24 52.19337 1.74399 36965 ft 462 kts 102°
2026-05-05 21:24 52.18274 1.84731 36967 ft 462 kts 102°
2026-05-05 21:25 52.17202 1.95053 36966 ft 462 kts 102°
2026-05-05 21:25 52.16121 2.05371 36962 ft 461 kts 102°
2026-05-05 21:26 52.15035 2.15645 36962 ft 460 kts 102°
2026-05-05 21:26 52.13948 2.25851 36958 ft 460 kts 102°
2026-05-05 21:27 52.12848 2.36110 36953 ft 460 kts 102°
2026-05-05 21:27 52.11863 2.46407 36929 ft 462 kts 92°
2026-05-05 21:28 52.12191 2.51608 36956 ft 464 kts 78°
2026-05-05 21:28 52.13126 2.56636 36949 ft 467 kts 75°
2026-05-05 21:28 52.15006 2.66759 36969 ft 468 kts 75°
2026-05-05 21:29 52.16899 2.76893 36953 ft 467 kts 75°
2026-05-05 21:29 52.18783 2.87016 36952 ft 467 kts 75°
2026-05-05 21:30 52.20662 2.97166 36937 ft 467 kts 75°
2026-05-05 21:30 52.22535 3.07343 36955 ft 470 kts 75°
2026-05-05 21:31 52.24403 3.17542 36952 ft 469 kts 75°
2026-05-05 21:31 52.25144 3.22700 36915 ft 465 kts 87°
2026-05-05 21:31 52.25070 3.27914 36951 ft 457 kts 100°
2026-05-05 21:32 52.24215 3.38253 36933 ft 460 kts 101°
2026-05-05 21:32 52.23262 3.48518 36926 ft 461 kts 101°
2026-05-05 21:33 52.22257 3.58852 36934 ft 462 kts 101°
2026-05-05 21:33 52.21237 3.69195 36941 ft 461 kts 102°
2026-05-05 21:34 52.20211 3.79522 36935 ft 461 kts 101°
2026-05-05 21:34 52.19174 3.89842 36931 ft 461 kts 102°
2026-05-05 21:35 52.18129 4.00154 36926 ft 461 kts 102°
2026-05-05 21:35 52.17083 4.10384 36924 ft 461 kts 102°
2026-05-05 21:36 52.16021 4.20675 36925 ft 461 kts 102°
2026-05-05 21:36 52.14951 4.30955 36925 ft 461 kts 102°
2026-05-05 21:37 52.13872 4.41233 36922 ft 461 kts 102°
2026-05-05 21:37 52.12783 4.51517 36924 ft 460 kts 102°
2026-05-05 21:38 52.11686 4.61781 36916 ft 460 kts 102°
2026-05-05 21:38 52.10580 4.72045 36913 ft 460 kts 102°
2026-05-05 21:39 52.09466 4.82294 36912 ft 460 kts 102°
2026-05-05 21:39 52.08349 4.92477 36893 ft 460 kts 103°
2026-05-05 21:40 52.07218 5.02715 36908 ft 460 kts 103°
2026-05-05 21:40 52.06080 5.12937 36908 ft 460 kts 103°
2026-05-05 21:41 52.04936 5.23153 36907 ft 460 kts 103°
2026-05-05 21:41 52.04109 5.33345 36922 ft 461 kts 98°
2026-05-05 21:42 52.03439 5.43713 36899 ft 461 kts 99°
2026-05-05 21:42 52.02730 5.54054 36898 ft 460 kts 99°
2026-05-05 21:43 52.02011 5.64388 36898 ft 460 kts 99°
2026-05-05 21:43 52.01283 5.74708 36891 ft 460 kts 99°
2026-05-05 21:44 52.00550 5.84973 36890 ft 460 kts 99°
2026-05-05 21:44 51.99805 5.95273 36882 ft 459 kts 99°
2026-05-05 21:45 51.99051 6.05575 36878 ft 459 kts 99°
2026-05-05 21:45 51.98289 6.15867 36877 ft 459 kts 99°
2026-05-05 21:46 51.97649 6.24406 36879 ft 459 kts 100°
2026-05-05 21:46 51.96870 6.34689 36870 ft 459 kts 100°
2026-05-05 21:47 51.96083 6.44958 36866 ft 459 kts 100°
2026-05-05 21:47 51.95287 6.55224 36867 ft 459 kts 100°
2026-05-05 21:48 51.94481 6.65500 36864 ft 459 kts 100°
2026-05-05 21:48 51.93668 6.75755 36857 ft 459 kts 100°
2026-05-05 21:49 51.92845 6.85999 36846 ft 458 kts 101°
2026-05-05 21:49 51.92015 6.96239 36861 ft 458 kts 101°
2026-05-05 21:50 51.91177 7.06454 36849 ft 458 kts 101°
2026-05-05 21:50 51.90335 7.16610 36860 ft 458 kts 101°
2026-05-05 21:51 51.89479 7.26821 36847 ft 458 kts 101°
2026-05-05 21:51 51.88615 7.37022 36845 ft 457 kts 101°
2026-05-05 21:52 51.87304 7.52311 36840 ft 457 kts 101°
2026-05-05 21:53 51.86423 7.62490 36838 ft 457 kts 101°
2026-05-05 21:53 51.85388 7.72617 36832 ft 453 kts 108°
2026-05-05 21:54 51.83916 7.82545 36816 ft 454 kts 106°
2026-05-05 21:54 51.82504 7.92487 36836 ft 454 kts 106°
2026-05-05 21:55 51.81092 8.02431 36835 ft 454 kts 106°
2026-05-05 21:55 51.79675 8.12358 36833 ft 453 kts 106°
2026-05-05 21:56 51.78249 8.22278 36832 ft 453 kts 107°
2026-05-05 21:56 51.76825 8.32194 36826 ft 454 kts 106°
2026-05-05 21:57 51.75466 8.42144 36829 ft 454 kts 106°
2026-05-05 21:57 51.74102 8.52025 36830 ft 454 kts 106°
2026-05-05 21:58 51.72721 8.61953 36823 ft 453 kts 106°
2026-05-05 21:58 51.71333 8.71859 36826 ft 453 kts 106°
2026-05-05 21:59 51.69939 8.81753 36821 ft 452 kts 106°
2026-05-05 21:59 51.68535 8.91650 36825 ft 452 kts 106°
2026-05-05 22:00 51.67125 9.01517 36827 ft 452 kts 107°
2026-05-05 22:00 51.65707 9.11382 36835 ft 452 kts 107°
2026-05-05 22:01 51.64282 9.21237 36825 ft 452 kts 107°
2026-05-05 22:01 51.62846 9.31098 36819 ft 452 kts 107°
2026-05-05 22:02 51.61405 9.40930 36806 ft 452 kts 107°
2026-05-05 22:02 51.59965 9.50700 36806 ft 452 kts 107°
2026-05-05 22:03 51.58507 9.60524 36806 ft 451 kts 107°
2026-05-05 22:03 51.57041 9.70339 36797 ft 452 kts 107°
2026-05-05 22:04 51.55563 9.80182 36812 ft 453 kts 107°
2026-05-05 22:04 51.54076 9.90014 36816 ft 453 kts 107°
2026-05-05 22:05 51.52582 9.99840 36816 ft 453 kts 107°
2026-05-05 22:05 51.51079 10.09659 36813 ft 453 kts 108°
2026-05-05 22:06 51.49569 10.19467 36810 ft 453 kts 108°
2026-05-05 22:06 51.48049 10.29279 36813 ft 453 kts 108°
2026-05-05 22:07 51.46534 10.39020 36816 ft 453 kts 108°
2026-05-05 22:07 51.45000 10.48821 36810 ft 453 kts 108°
2026-05-05 22:08 51.43454 10.58616 36812 ft 453 kts 108°
2026-05-05 22:08 51.41907 10.68390 36813 ft 453 kts 108°
2026-05-05 22:09 51.40350 10.78166 36811 ft 453 kts 108°
2026-05-05 22:09 51.38784 10.87949 36803 ft 453 kts 108°
2026-05-05 22:10 51.37209 10.97711 36803 ft 453 kts 109°
2026-05-05 22:10 51.35634 11.07409 36781 ft 453 kts 109°
2026-05-05 22:11 51.34030 11.17234 36805 ft 454 kts 109°
2026-05-05 22:11 51.32438 11.26945 36799 ft 454 kts 109°
2026-05-05 22:12 51.30834 11.36713 36798 ft 454 kts 109°
2026-05-05 22:12 51.29219 11.46467 36797 ft 454 kts 109°
2026-05-05 22:13 51.27577 11.56208 36782 ft 454 kts 109°
2026-05-05 22:13 51.25932 11.65992 36791 ft 456 kts 109°
2026-05-05 22:14 51.24292 11.75691 36785 ft 456 kts 109°
2026-05-05 22:14 51.22631 11.85456 36788 ft 456 kts 110°
2026-05-05 22:15 51.20966 11.95201 36780 ft 456 kts 110°
2026-05-05 22:15 51.19296 12.04958 36778 ft 455 kts 110°
2026-05-05 22:16 51.17621 12.14690 36766 ft 455 kts 110°
2026-05-05 22:16 51.15940 12.24360 36776 ft 452 kts 110°
2026-05-05 22:17 51.14243 12.33996 36789 ft 452 kts 110°
2026-05-05 22:17 51.12551 12.43562 36778 ft 452 kts 110°
2026-05-05 22:18 51.10840 12.53181 36806 ft 452 kts 110°
2026-05-05 22:18 51.09118 12.62811 36805 ft 452 kts 110°
2026-05-05 22:19 51.07388 12.72438 36796 ft 452 kts 110°
2026-05-05 22:19 51.05650 12.82051 36799 ft 452 kts 111°
2026-05-05 22:20 51.03903 12.91668 36767 ft 454 kts 111°
2026-05-05 22:20 51.02143 13.01306 36788 ft 458 kts 111°
2026-05-05 22:21 51.00363 13.11000 36784 ft 457 kts 111°
2026-05-05 22:21 50.98575 13.20688 36788 ft 457 kts 111°
2026-05-05 22:22 50.96782 13.30372 36785 ft 457 kts 110°
2026-05-05 22:22 50.95033 13.40143 36771 ft 463 kts 110°
2026-05-05 22:23 50.93245 13.49989 36790 ft 464 kts 111°
2026-05-05 22:23 50.91415 13.59801 36797 ft 464 kts 111°
2026-05-05 22:24 50.89581 13.69608 36794 ft 464 kts 111°
2026-05-05 22:24 50.87731 13.79395 36794 ft 464 kts 111°
2026-05-05 22:25 50.85873 13.89174 36782 ft 464 kts 111°
2026-05-05 22:25 50.83975 13.98855 36767 ft 461 kts 117°
2026-05-05 22:25 50.82449 14.03212 36787 ft 450 kts 128°
2026-05-05 22:26 50.80770 14.07437 36757 ft 454 kts 126°
2026-05-05 22:26 50.77414 14.15889 36783 ft 454 kts 127°
2026-05-05 22:27 50.74022 14.24283 36776 ft 453 kts 127°
2026-05-05 22:27 50.70624 14.32651 36774 ft 452 kts 127°
2026-05-05 22:28 50.67219 14.41008 36772 ft 452 kts 127°
2026-05-05 22:28 50.63821 14.49324 36767 ft 450 kts 127°
2026-05-05 22:29 50.60445 14.57556 36744 ft 450 kts 127°
2026-05-05 22:29 50.57026 14.65870 36758 ft 454 kts 127°
2026-05-05 22:30 50.53584 14.74210 36754 ft 454 kts 127°
2026-05-05 22:30 50.50141 14.82528 36755 ft 454 kts 128°
2026-05-05 22:31 50.46696 14.90826 36758 ft 454 kts 128°
2026-05-05 22:31 50.43239 14.99124 36731 ft 455 kts 127°
2026-05-05 22:32 50.39760 15.07449 36750 ft 458 kts 127°
2026-05-05 22:32 50.36263 15.15790 36752 ft 458 kts 127°
2026-05-05 22:33 50.32763 15.24113 36760 ft 457 kts 127°
2026-05-05 22:33 50.29855 15.31007 36752 ft 457 kts 128°
2026-05-05 22:34 50.25773 15.40654 36746 ft 459 kts 127°
2026-05-05 22:34 50.22235 15.48988 36750 ft 460 kts 127°
2026-05-05 22:35 50.19290 15.55903 36748 ft 460 kts 127°
2026-05-05 22:35 50.15742 15.64212 36747 ft 460 kts 127°
2026-05-05 22:36 50.12187 15.72510 36746 ft 460 kts 128°
2026-05-05 22:36 50.08624 15.80803 36749 ft 462 kts 127°
2026-05-05 22:37 50.05046 15.89112 36750 ft 462 kts 127°
2026-05-05 22:37 50.01521 15.97474 36758 ft 464 kts 122°
2026-05-05 22:38 49.98495 16.06355 36774 ft 465 kts 121°
2026-05-05 22:38 49.95508 16.15186 36758 ft 465 kts 121°
2026-05-05 22:39 49.92487 16.24095 36782 ft 466 kts 121°
2026-05-05 22:39 49.89458 16.32997 36778 ft 466 kts 121°
2026-05-05 22:40 49.86425 16.41881 36790 ft 466 kts 121°
2026-05-05 22:40 49.83387 16.50749 36793 ft 466 kts 121°
2026-05-05 22:41 49.80335 16.59627 36791 ft 467 kts 121°
2026-05-05 22:41 49.77276 16.68494 36808 ft 467 kts 121°
2026-05-05 22:42 49.74208 16.77357 36804 ft 467 kts 121°
2026-05-05 22:42 49.71135 16.86202 36811 ft 467 kts 121°
2026-05-05 22:43 49.68054 16.95041 36799 ft 467 kts 121°
2026-05-05 22:43 49.64967 17.03868 36811 ft 467 kts 121°
2026-05-05 22:44 49.61870 17.12691 36810 ft 467 kts 121°
2026-05-05 22:44 49.58787 17.21443 36818 ft 467 kts 121°
2026-05-05 22:45 49.55678 17.30243 36803 ft 468 kts 121°
2026-05-05 22:45 49.52558 17.39040 36815 ft 468 kts 121°
2026-05-05 22:46 49.49431 17.47828 36818 ft 468 kts 121°
2026-05-05 22:46 49.46295 17.56613 36821 ft 468 kts 121°
2026-05-05 22:47 49.43157 17.65371 36825 ft 468 kts 121°
2026-05-05 22:47 49.40009 17.74128 36833 ft 468 kts 121°
2026-05-05 22:48 49.36855 17.82874 36832 ft 468 kts 121°
2026-05-05 22:48 49.33698 17.91598 36833 ft 468 kts 121°
2026-05-05 22:49 49.30533 18.00318 36837 ft 468 kts 121°
2026-05-05 22:49 49.27363 18.09031 36837 ft 469 kts 121°
2026-05-05 22:50 49.24138 18.17627 36847 ft 468 kts 124°
2026-05-05 22:50 49.20692 18.26122 36852 ft 470 kts 124°
2026-05-05 22:51 49.17273 18.34615 36830 ft 468 kts 123°
2026-05-05 22:51 49.13851 18.43095 36854 ft 468 kts 123°
2026-05-05 22:52 49.10424 18.51557 36867 ft 468 kts 123°
2026-05-05 22:52 49.06998 18.59992 36871 ft 468 kts 123°
2026-05-05 22:53 49.03584 18.68367 36872 ft 467 kts 123°
2026-05-05 22:53 49.00149 18.76772 36866 ft 468 kts 124°
2026-05-05 22:54 48.96703 18.85178 36876 ft 467 kts 123°
2026-05-05 22:54 48.93254 18.93561 36894 ft 467 kts 123°
2026-05-05 22:55 48.89798 19.01935 36891 ft 467 kts 123°
2026-05-05 22:55 48.86338 19.10295 36903 ft 467 kts 124°
2026-05-05 22:56 48.82864 19.18661 36892 ft 470 kts 124°
2026-05-05 22:56 48.79371 19.27047 36908 ft 471 kts 124°
2026-05-05 22:57 48.75869 19.35428 36907 ft 468 kts 124°
2026-05-05 22:57 48.72390 19.43727 36926 ft 467 kts 124°
2026-05-05 22:58 48.68902 19.52022 36919 ft 467 kts 124°
2026-05-05 22:58 48.65411 19.60299 36915 ft 467 kts 124°
2026-05-05 22:59 48.61911 19.68573 36915 ft 467 kts 124°
2026-05-05 22:59 48.58404 19.76836 36932 ft 467 kts 124°
2026-05-05 23:00 48.53155 19.89157 36929 ft 467 kts 124°
2026-05-05 23:00 48.49636 19.97388 36930 ft 467 kts 124°
2026-05-05 23:01 48.46108 20.05613 36925 ft 467 kts 124°
2026-05-05 23:01 48.42577 20.13820 36924 ft 467 kts 124°
2026-05-05 23:02 48.39041 20.22019 36908 ft 467 kts 124°
2026-05-05 23:02 48.35496 20.30215 36918 ft 468 kts 124°
2026-05-05 23:03 48.31971 20.38428 36920 ft 468 kts 123°
2026-05-05 23:03 48.28510 20.46687 36922 ft 468 kts 123°
2026-05-05 23:04 48.25055 20.54888 36921 ft 468 kts 123°
2026-05-05 23:04 48.21571 20.63133 36924 ft 468 kts 123°
2026-05-05 23:05 48.18079 20.71372 36923 ft 468 kts 123°
2026-05-05 23:05 48.14578 20.79606 36918 ft 468 kts 124°
2026-05-05 23:06 48.11070 20.87831 36921 ft 468 kts 124°
2026-05-05 23:06 48.07561 20.96036 36918 ft 468 kts 123°
2026-05-05 23:07 48.04049 21.04219 36923 ft 468 kts 124°
2026-05-05 23:07 48.00532 21.12393 36922 ft 468 kts 124°
2026-05-05 23:08 47.97026 21.20515 36920 ft 468 kts 124°
2026-05-05 23:08 47.93490 21.28682 36922 ft 469 kts 124°
2026-05-05 23:09 47.89944 21.36849 36925 ft 469 kts 124°
2026-05-05 23:09 47.86396 21.44995 36925 ft 469 kts 124°
2026-05-05 23:10 47.82841 21.53134 36925 ft 469 kts 124°
2026-05-05 23:10 47.79281 21.61265 36929 ft 468 kts 124°
2026-05-05 23:11 47.75717 21.69376 36932 ft 468 kts 124°
2026-05-05 23:11 47.72176 21.77418 36934 ft 468 kts 124°
2026-05-05 23:12 47.68604 21.85504 36935 ft 468 kts 124°
2026-05-05 23:12 47.65027 21.93581 36935 ft 468 kts 124°
2026-05-05 23:13 47.61448 22.01637 36939 ft 468 kts 124°
2026-05-05 23:13 47.57858 22.09680 36933 ft 467 kts 126°
2026-05-05 23:14 47.53825 22.17233 36949 ft 469 kts 130°
2026-05-05 23:14 47.49715 22.24712 36947 ft 468 kts 130°
2026-05-05 23:15 47.45626 22.32120 36945 ft 468 kts 130°
2026-05-05 23:15 47.41500 22.39574 36949 ft 468 kts 130°
2026-05-05 23:16 47.37373 22.47009 36953 ft 468 kts 130°
2026-05-05 23:16 47.33241 22.54434 36964 ft 468 kts 130°
2026-05-05 23:17 47.29110 22.61837 36967 ft 467 kts 130°
2026-05-05 23:17 47.24979 22.69218 36968 ft 467 kts 130°
2026-05-05 23:18 47.20836 22.76601 36975 ft 468 kts 130°
2026-05-05 23:18 47.16684 22.83981 36980 ft 469 kts 130°
2026-05-05 23:19 47.12553 22.91305 36986 ft 468 kts 130°
2026-05-05 23:19 47.08369 22.98701 36996 ft 468 kts 130°
2026-05-05 23:20 47.04203 23.06046 36997 ft 468 kts 130°
2026-05-05 23:20 47.00057 23.13336 37000 ft 468 kts 130°
2026-05-05 23:21 46.95878 23.20664 37001 ft 469 kts 130°
2026-05-05 23:21 46.91687 23.27994 37008 ft 469 kts 130°
2026-05-05 23:22 46.87497 23.35303 37008 ft 469 kts 130°
2026-05-05 23:22 46.83297 23.42610 37009 ft 469 kts 130°
2026-05-05 23:23 46.79795 23.48686 36995 ft 470 kts 130°
2026-05-05 23:23 46.75582 23.55980 36994 ft 470 kts 130°
2026-05-05 23:24 46.71360 23.63270 36991 ft 470 kts 130°
2026-05-05 23:24 46.67137 23.70542 36995 ft 470 kts 130°
2026-05-05 23:25 46.62907 23.77806 37006 ft 470 kts 130°
2026-05-05 23:25 46.58669 23.85065 36997 ft 471 kts 130°
2026-05-05 23:26 46.54429 23.92309 36998 ft 471 kts 130°
2026-05-05 23:26 46.50172 23.99560 36993 ft 471 kts 130°
2026-05-05 23:27 46.45944 24.06748 37002 ft 472 kts 130°
2026-05-05 23:27 46.41674 24.13984 37000 ft 472 kts 130°
2026-05-05 23:28 46.37400 24.21208 37005 ft 472 kts 130°
2026-05-05 23:28 46.33117 24.28429 37008 ft 472 kts 130°
2026-05-05 23:29 46.28836 24.35629 37007 ft 472 kts 130°
2026-05-05 23:29 46.24546 24.42824 37009 ft 472 kts 130°
2026-05-05 23:30 46.20255 24.50002 37006 ft 472 kts 130°
2026-05-05 23:30 46.15955 24.57176 37005 ft 472 kts 130°
2026-05-05 23:31 46.11652 24.64337 37011 ft 473 kts 130°
2026-05-05 23:31 46.07367 24.71449 37006 ft 473 kts 130°
2026-05-05 23:32 46.03043 24.78607 37006 ft 473 kts 130°
2026-05-05 23:32 45.98720 24.85745 37009 ft 473 kts 130°
2026-05-05 23:33 45.94391 24.92875 37001 ft 473 kts 130°
2026-05-05 23:33 45.90061 24.99987 37021 ft 473 kts 130°
2026-05-05 23:34 45.85724 25.07094 37022 ft 473 kts 130°
2026-05-05 23:34 45.81386 25.14184 37019 ft 473 kts 130°
2026-05-05 23:35 45.77041 25.21265 37018 ft 473 kts 130°
2026-05-05 23:35 45.72694 25.28334 37016 ft 473 kts 130°
2026-05-05 23:36 45.68346 25.35384 37037 ft 473 kts 130°
2026-05-05 23:36 45.64019 25.42383 37025 ft 473 kts 130°
2026-05-05 23:37 45.59662 25.49413 37038 ft 473 kts 130°
2026-05-05 23:37 45.55296 25.56441 37044 ft 473 kts 130°
2026-05-05 23:38 45.50927 25.63455 37039 ft 473 kts 130°
2026-05-05 23:38 45.48745 25.66950 36807 ft 472 kts 130°
2026-05-05 23:38 45.46537 25.70485 35691 ft 480 kts 130°
2026-05-05 23:39 45.44333 25.74008 35230 ft 473 kts 130°
2026-05-05 23:39 45.42145 25.77501 34546 ft 473 kts 130°
2026-05-05 23:39 45.39949 25.81002 33796 ft 473 kts 129°
2026-05-05 23:39 45.37746 25.84507 32946 ft 475 kts 129°
2026-05-05 23:40 45.35548 25.88003 32100 ft 476 kts 129°
2026-05-05 23:40 45.33336 25.91515 31262 ft 477 kts 129°
2026-05-05 23:40 45.31115 25.95039 30422 ft 479 kts 129°
2026-05-05 23:40 45.28891 25.98561 29509 ft 480 kts 129°
2026-05-05 23:41 45.26662 26.02089 28534 ft 481 kts 129°
2026-05-05 23:41 45.24449 26.05587 27533 ft 482 kts 130°
2026-05-05 23:41 45.22208 26.09126 26526 ft 483 kts 130°
2026-05-05 23:41 45.19955 26.12679 25537 ft 484 kts 130°
2026-05-05 23:42 45.17707 26.16221 24707 ft 482 kts 130°
2026-05-05 23:42 45.15476 26.19730 24000 ft 477 kts 130°
2026-05-05 23:42 45.13258 26.23215 23236 ft 473 kts 130°
2026-05-05 23:42 45.11070 26.26650 22490 ft 467 kts 130°
2026-05-05 23:43 45.08903 26.30046 21746 ft 462 kts 130°
2026-05-05 23:43 45.06759 26.33403 21026 ft 457 kts 130°
2026-05-05 23:43 45.04642 26.36714 20349 ft 452 kts 130°
2026-05-05 23:43 45.02477 26.39911 19673 ft 449 kts 138°
2026-05-05 23:44 44.99849 26.42237 19071 ft 446 kts 155°
2026-05-05 23:44 44.96928 26.43639 18479 ft 442 kts 163°
2026-05-05 23:44 44.93994 26.44840 17756 ft 439 kts 164°
2026-05-05 23:44 44.91014 26.45695 17126 ft 434 kts 170°
2026-05-05 23:45 44.88017 26.46172 16418 ft 432 kts 174°
2026-05-05 23:45 44.85022 26.46081 15764 ft 429 kts 184°
2026-05-05 23:45 44.82061 26.46180 15117 ft 424 kts 172°
2026-05-05 23:45 44.79172 26.46588 14505 ft 421 kts 173°
2026-05-05 23:46 44.76255 26.46448 13928 ft 420 kts 190°
2026-05-05 23:46 44.73536 26.45139 13311 ft 406 kts 207°
2026-05-05 23:46 44.71263 26.42894 12480 ft 395 kts 225°
2026-05-05 23:46 44.69587 26.39936 11777 ft 380 kts 242°
2026-05-05 23:47 44.68610 26.36580 11174 ft 363 kts 259°
2026-05-05 23:47 44.68150 26.33199 10926 ft 341 kts 263°
2026-05-05 23:47 44.67798 26.30019 10781 ft 319 kts 264°
2026-05-05 23:47 44.67516 26.27045 10622 ft 299 kts 265°
2026-05-05 23:48 44.67272 26.24208 10487 ft 281 kts 266°
2026-05-05 23:48 44.67055 26.21560 10346 ft 265 kts 267°
2026-05-05 23:48 44.66855 26.19033 10216 ft 259 kts 266°
2026-05-05 23:48 44.66656 26.16446 10111 ft 272 kts 266°
2026-05-05 23:49 44.66452 26.13773 9865 ft 277 kts 266°
2026-05-05 23:49 44.66248 26.11083 9522 ft 276 kts 266°
2026-05-05 23:49 44.66045 26.08410 9170 ft 273 kts 266°
2026-05-05 23:49 44.65844 26.05773 8873 ft 271 kts 266°
2026-05-05 23:50 44.65644 26.03143 8596 ft 269 kts 266°
2026-05-05 23:50 44.65446 26.00540 8314 ft 267 kts 266°
2026-05-05 23:50 44.65248 25.97955 8030 ft 265 kts 266°
2026-05-05 23:50 44.65050 25.95386 7748 ft 263 kts 266°
2026-05-05 23:51 44.64854 25.92833 7464 ft 261 kts 265°
2026-05-05 23:51 44.64658 25.90303 7190 ft 259 kts 265°
2026-05-05 23:51 44.64464 25.87798 6920 ft 257 kts 265°
2026-05-05 23:51 44.64274 25.85347 6652 ft 255 kts 265°
2026-05-05 23:52 44.64082 25.82881 6493 ft 243 kts 265°
2026-05-05 23:52 44.63904 25.80609 6381 ft 226 kts 265°
2026-05-05 23:52 44.63735 25.78446 6034 ft 220 kts 265°
2026-05-05 23:52 44.63566 25.76313 5617 ft 218 kts 265°
2026-05-05 23:53 44.63403 25.74236 5287 ft 212 kts 264°
2026-05-05 23:53 44.63227 25.72218 4851 ft 209 kts 259°
2026-05-05 23:53 44.62526 25.70468 4351 ft 209 kts 223°
2026-05-05 23:53 44.61230 25.69621 3940 ft 209 kts 190°
2026-05-05 23:54 44.59775 25.69702 3592 ft 210 kts 176°
2026-05-05 23:54 44.58318 25.69926 3254 ft 211 kts 176°
2026-05-05 23:54 44.56861 25.70151 2889 ft 210 kts 175°
2026-05-05 23:54 44.55454 25.70591 2584 ft 206 kts 154°
2026-05-05 23:55 44.54428 25.71939 2465 ft 206 kts 122°
2026-05-05 23:55 44.54036 25.73874 2479 ft 210 kts 97°
2026-05-05 23:55 44.54042 25.75930 2510 ft 213 kts 87°
2026-05-05 23:55 44.54200 25.78001 2515 ft 213 kts 85°
2026-05-05 23:56 44.54368 25.80071 2503 ft 213 kts 86°
2026-05-05 23:56 44.54525 25.82105 2489 ft 203 kts 86°
2026-05-05 23:56 44.54670 25.84012 2479 ft 193 kts 86°
2026-05-05 23:56 44.54813 25.85882 2493 ft 192 kts 86°
2026-05-05 23:57 44.54953 25.87735 2488 ft 186 kts 86°
2026-05-05 23:57 44.55084 25.89468 2466 ft 174 kts 86°
2026-05-05 23:57 44.55211 25.91139 2348 ft 172 kts 86°
2026-05-05 23:57 44.55336 25.92796 2169 ft 170 kts 87°
2026-05-05 23:58 44.55461 25.94443 1984 ft 169 kts 86°
2026-05-05 23:58 44.55585 25.96069 1787 ft 166 kts 87°
2026-05-05 23:58 44.55707 25.97676 1603 ft 164 kts 86°
2026-05-05 23:58 44.55820 25.99184 1421 ft 146 kts 86°
2026-05-05 23:59 44.55925 26.00570 1280 ft 141 kts 85°
2026-05-05 23:59 44.56023 26.01897 1093 ft 137 kts 84°
2026-05-05 23:59 44.56126 26.03215 923 ft 135 kts 83°
2026-05-05 23:59 44.56225 26.04518 758 ft 134 kts 83°
2026-05-06 00:00 44.56323 26.05809 592 ft 132 kts 82°
2026-05-06 00:00 44.56419 26.07083 424 ft 130 kts 83°
2026-05-06 00:00 44.56517 26.08295 326 ft 114 kts 83°
2026-05-06 00:00 44.56577 26.09126 319 ft 59 kts 86°
2026-05-06 00:01 44.56605 26.09547 321 ft 38 kts 85°
2026-05-06 00:01 44.56640 26.09966 325 ft 48 kts 85°
2026-05-06 00:01 44.56679 26.10479 323 ft 57 kts 83°
2026-05-06 00:01 44.56774 26.10760 323 ft 30 kts 360°
2026-05-06 00:02 44.56986 26.10710 323 ft 32 kts 327°
2026-05-06 00:02 44.57062 26.10432 321 ft 32 kts 264°
2026-05-06 00:02 44.57039 26.10108 323 ft 34 kts 266°
2026-05-06 00:02 44.57010 26.09769 320 ft 36 kts 266°
2026-05-06 00:03 44.56985 26.09412 323 ft 38 kts 265°
2026-05-06 00:03 44.56956 26.09040 323 ft 39 kts 265°
2026-05-06 00:03 44.56943 26.08873 323 ft 4 kts 263°
2026-05-06 00:03 44.56936 26.08824 321 ft 3 kts 234°
2026-05-06 00:04 44.56926 26.08820 321 ft 2 kts 191°
2026-05-06 00:04 44.56901 26.08819 323 ft 5 kts 173°
2026-05-06 00:04 44.56882 26.08822 322 ft 2 kts 173°
2026-05-06 00:04 44.56880 26.08823 322 ft 0 kts 173°